Location: Maynard F. Jordan Observatory
(44.9000°N, 68.6700°W)
Time: 13:13:49
(UTC-05:00)

Daily predictions for brighter satellites

Satellite Brightness Start Highest point End
(mag) Time Altitude Azimuth Time Altitude Azimuth Time Altitude Azimuth
USA 215 3.7 16:53:18 10° E 16:59:28 45° NNE 17:05:39 10° NW
CZ-4C R/B 4.4 16:56:11 10° NNW 16:59:41 15° N 17:03:26 10° NE
COSMO-SKYMED 1 3.6 16:56:20 10° NE 17:00:00 26° E 17:03:38 10° SSE
Cosmos 2322 Rocket 4.5 16:57:19 10° WNW 17:00:29 15° NW 17:03:39 10° N
Cosmos 1626 4.1 16:59:05 10° ESE 17:00:30 12° E 17:01:55 10° ENE
YAOGAN 1 2.5 16:56:43 10° SSE 17:01:01 74° ENE 17:05:22 10° N
Cosmos 1328 4.0 16:58:27 10° S 17:02:16 51° E 17:06:07 10° NNE
OTV 4 3.7 17:01:41 10° SW 17:02:26 11° SSW 17:03:11 10° S
Cosmos 2278 Rocket 2.2 16:58:32 10° NNW 17:04:15 79° ENE 17:09:56 10° SSE
Cosmos 2151 3.2 17:05:30 10° SSE 17:09:32 48° E 17:13:36 10° NNE
CZ-4 R/B 2.1 17:08:05 10° S 17:11:54 56° W 17:15:46 10° NNW
Cosmos 1726 2.1 17:09:29 10° N 17:13:16 73° E 17:17:01 10° SSE
Cosmos 1674 4.1 17:10:40 10° SSW 17:14:18 42° WNW 17:18:00 10° N
Cosmos 1455 3.6 17:12:03 10° NNE 17:14:38 17° ENE 17:17:13 10° ESE
Resurs 01 Rocket 3.4 17:13:26 10° E 17:15:20 13° ENE 17:17:15 10° NNE
Lacrosse 5 3.5 17:11:33 10° WNW 17:15:29 22° N 17:19:26 10° NE
Cosmos 2279 Rocket 4.1 17:12:26 10° N 17:18:35 57° ENE 17:24:41 10° SSE
Cosmos 1703 4.3 17:15:54 10° SE 17:19:08 25° E 17:22:23 10° NNE
SJ-6B 4.1 17:16:41 10° ESE 17:19:50 22° ENE 17:23:01 10° NNE
Cosmos 2228 Rocket 4.5 17:17:15 10° NNW 17:21:26 43° W 17:25:38 10° SSW
Meteor 1-27 4.3 17:22:13 10° N 17:28:03 72° ENE 17:33:53 10° SSE
Cosmos 2237 Rocket 2.2 17:24:24 10° SSW 17:30:02 88° ESE 17:35:44 10° NNE
CZ-2C R/B 3.7 17:25:36 10° S 17:30:19 44° W 17:34:56 10° NNW
CENTAUR R/B 3.6 17:25:49 10° WSW 17:31:46 42° NW 17:38:30 10° NNE
Cosmos 2369 Rocket 3.8 17:28:47 10° N 17:31:55 15° NE 17:33:18 14° ENE
Cosmos 1151 Rocket 3.4 17:28:49 10° NNW 17:33:05 66° W 17:37:20 10° S
Cosmos 1300 3.2 17:30:47 10° NNW 17:34:36 63° W 17:38:22 10° S
SL-16 R/B 2.5 17:32:25 10° S 17:37:45 45° ESE 17:43:04 10° NE
COSMOS 2428 4.3 17:32:51 10° WSW 17:37:56 32° NW 17:43:03 10° N
Lacrosse 4 Rocket 2.3 17:36:48 10° N 17:40:17 26° NE 17:42:02 20° E
Nadezhda 4 Rocket 4.4 17:34:44 10° SSE 17:40:28 39° E 17:46:17 10° NNE
Cosmos 44 3.7 17:36:49 10° SW 17:42:02 67° NW 17:47:01 10° NNE
Cosmos 2242 Rocket 4.4 17:40:19 10° NNE 17:44:08 27° ENE 17:47:56 10° SE
SL-14 R/B 3.7 17:40:57 10° SSW 17:44:51 65° W 17:48:51 10° N
Cosmos 2180 Rocket 4.4 17:39:14 10° N 17:45:25 75° E 17:51:38 10° SSE
Cosmos 1340 Rocket 2.6 17:42:14 10° S 17:46:09 75° E 17:50:05 10° NNE
Cosmos 1484 Rocket 3.4 17:43:19 10° S 17:47:13 62° W 17:51:12 10° NNW
ALOS 3.1 17:43:31 10° ESE 17:47:25 27° ENE 17:51:20 10° N
Spot 2 Rocket 4.3 17:43:44 10° ESE 17:47:56 27° ENE 17:52:09 10° N
Cosmos 2297 3.7 17:42:19 10° NNW 17:48:04 83° ENE 17:53:48 10° SSE
SKYMED 2 3.5 17:43:55 10° NNE 17:48:17 83° ESE 17:52:37 10° SSW
Cosmos 1805 Rocket 3.6 17:44:48 10° S 17:49:11 60° E 17:53:35 10° NNE
Meteor 2-10 4.2 17:45:32 10° NNW 17:50:38 75° W 17:55:52 10° S
Thor Agena Rocket 4.3 17:46:27 10° N 17:51:33 54° WNW 17:56:34 10° SW
FAST Rocket 4.4 17:49:10 10° SSE 17:51:37 37° E 17:52:03 34° ENE
Cosmos 1184 Rocket 3.5 17:51:13 10° SSE 17:54:13 31° E 17:54:19 31° E
Iridium 4 Rocket 3.8 17:53:40 10° SE 17:57:29 29° E 17:58:22 27° ENE
Meteor 1-28 Rocket 3.0 17:55:26 10° NNE 17:59:10 79° E 18:02:53 10° S
Cosmos 2058 3.4 17:55:07 10° SSW 17:59:10 62° W 18:03:15 10° N
Cosmos 1869 3.9 17:55:52 10° N 17:59:36 34° ENE 18:03:19 10° SE
Cosmos 1092 Rocket 4.3 17:55:54 10° SSE 18:01:46 42° E 18:07:40 10° NNE
Cosmos 1538 Rocket 4.0 17:56:53 10° S 18:02:04 60° ESE 18:06:34 14° NNE
Cosmos 1461 2.7 17:58:24 10° SSW 18:02:34 75° ESE 18:04:37 28° NE
Sich 1 3.1 18:00:08 10° S 18:04:28 57° E 18:08:50 10° NNE
FENGYUN 3A 3.9 18:04:38 10° SE 18:09:42 45° ENE 18:14:49 10° N
METEOR-M 4.1 18:07:09 10° SSE 18:12:31 86° ENE 18:17:54 10° NNW
SL-19 R/B 4.3 18:07:29 10° SE 18:13:11 59° ENE 18:18:41 10° N
Cosmos 1633 Rocket 3.0 18:08:58 10° S 18:13:19 62° E 18:16:41 16° NNE
Aureole 1 Rocket 4.0 18:12:46 10° S 18:18:08 56° ESE 18:24:42 12° NNE
Abrixas 2.7 18:16:41 10° W 18:19:24 59° NW 18:19:24 59° NW
Cosmos 1356 Rocket 3.2 18:16:03 10° S 18:20:02 85° WNW 18:23:02 17° N
ATLAS 5 CENTAUR R/B 3.6 18:19:20 10° NNW 18:23:40 21° NNE 18:23:48 21° NNE
NOAA 12 4.4 18:19:48 10° S 18:25:00 69° WSW 18:30:17 10° NNW
Lacrosse 5 rocket 4.0 18:22:58 10° W 18:25:37 18° SW 18:28:20 10° S
FREGAT/IRIS 3.0 18:24:48 10° S 18:27:49 63° W 18:30:52 10° NNW
H-2A ROCKET BODY 4.4 18:07:29 10° WSW 18:28:02 31° SSW 18:33:03 14° SE
BREEZE-M DEB (TANK) 3.1 18:31:26 10° WSW 18:33:03 43° WSW 18:33:03 43° WSW
Cosmos 1626 3.0 18:31:47 10° SSW 18:35:25 48° WNW 18:38:10 16° N
COSMO-SKYMED 1 4.3 18:32:19 10° N 18:36:10 32° WNW 18:40:00 10° SW
Cosmos 2219 Rocket 4.3 18:33:46 10° W 18:37:59 21° NW 18:42:12 10° N
FengYun 1-2 T 4.1 18:33:12 10° SSE 18:38:45 83° ENE 18:44:18 10° NNW
Cosmos 773 Rocket 3.8 18:34:57 10° SSW 18:40:07 85° ESE 18:42:10 38° NNE
Cosmos 2333 Rocket 4.1 18:36:03 10° WSW 18:40:38 25° NW 18:45:15 10° N
BREEZE M DEB (TANK) 4.0 18:39:42 10° W 18:40:58 17° SW 18:40:58 17° SW
Cosmos 1943 Rocket 3.9 18:37:27 10° N 18:39:28 17° NNE 18:39:28 17° NNE
USA 215 3.3 18:37:34 21° SE 18:42:14 75° SW 18:48:49 10° NW
Cosmos 1603 3.7 18:36:55 10° S 18:42:22 56° ESE 18:42:36 55° E
ATLAS 3B R/B 4.2 18:38:37 10° NNW 18:43:25 19° NNE 18:44:15 18° NNE
Orbus 7S? 4.5 18:44:11 10° NW 18:48:29 87° SW 18:53:53 26° SE
Cosmos 1455 3.8 18:47:00 10° NNW 18:50:28 34° W 18:53:57 10° SSW
CZ-4C R/B 3.9 18:45:15 10° NNW 18:50:36 26° NNE 18:50:36 26° NNE
Resurs 01 Rocket 1.6 18:49:20 35° S 18:51:12 80° WSW 18:55:39 10° NNW
Resurs 1-3 4.4 18:55:11 43° NNW 18:55:11 43° NNW 18:58:10 10° NNW
SJ-6B 4.5 18:50:30 10° SSW 18:54:16 36° W 18:58:07 10° NNW
Lacrosse 5 3.5 18:55:50 10° NW 18:59:05 23° N 18:59:05 23° N
Cosmos 1627 Rocket 4.3 18:53:57 10° S 19:00:07 74° E 19:02:02 46° NNE
Cosmos 2237 Rocket 4.5 19:11:01 10° W 19:14:54 19° NW 19:18:48 10° N
Cosmos 2369 Rocket 2.9 19:11:22 10° NNW 19:15:08 42° N 19:15:08 42° N
Lacrosse 4 Rocket 3.1 19:15:23 10° NW 19:18:28 31° W 19:18:28 31° W
SL-16 R/B 3.8 19:17:02 10° WSW 19:22:02 31° NW 19:24:59 20° N
ALOS 3.7 19:20:27 10° SSW 19:24:43 35° W 19:29:01 10° NNW
USA 229 DEB 3.8 19:21:52 10° SW 19:28:43 69° NW 19:29:44 61° N
USA 229 3.8 19:21:58 10° SW 19:28:49 70° NW 19:29:47 62° N
Cosmos 2026 Rocket 4.0 19:23:10 10° SSW 19:29:04 74° WSW 19:29:04 74° WSW
ATLAS 5 CENTAUR R/B 4.2 20:03:26 10° NW 20:05:22 22° NNW 20:05:22 22° NNW
CZ-4C R/B 4.5 20:33:23 10° NW 20:35:49 24° NNW 20:35:49 24° NNW
